Location: Bonaustraße
(48.4603°N, 11.9280°E)
Time: 23:39:40
(UTC+01:00)

X-37B - Pass Details

Date: 23 January 2021
Orbit: 383 x 391 km, 45.0° (Epoch: 27 February)

Event Time Altitude Azimuth Distance (km) Brightness Sun altitude
Rises 18:47:34 0° 252° (WSW) 2,270 6.1 -18.1°
Reaches altitude 10° 18:49:41 10° 245° (WSW) 1,418 4.6 -18.4°
Maximum altitude 18:52:44 42° 173° (S) 572 1.4 -18.9°
Enters shadow 18:52:53 41° 164° (SSE) 576 1.3 -19.0°
